Regional Weather Roundup
Issued by NWS Sioux Falls, SD

Home | Current Version | Previous Version | Text Only | Print | Product List | Glossary On
Versions: 1 2 3 4 5 6 7 8 9 10 11 12 13 14 15 16 17 18 19 20 21 22 23 24 25 26 27 28 29 30 31 32 33 34 35 36 37 38 39 40 41 42 43 44 45 46 47 48 49 50
000
ASUS43 KFSD 300810
RWRFSD

WEATHER ROUNDUP FOR SE SOUTH DAKOTA/SW MINNESOTA/NW IOWA
NATIONAL WEATHER SERVICE SIOUX FALLS SD
300 AM CDT TUE JUN 30 2015

NOTE: "FAIR" INDICATES FEW OR NO CLOUDS BELOW 12,000 FEET WITH NO
SIGNIFICANT WEATHER AND OR OBSTRUCTIONS TO VISIBILITY.


SDZ038>040-050-052>070-300900-
SOUTHEAST SOUTH DAKOTA

CITY           SKY/WX    TMP DP  RH WIND       PRES   REMARKS
BROOKINGS      PTCLDY    61  55  82 W3        29.95R
CHAMBERLAIN    MOCLDY    71  63  76 NE6       29.93R
HURON          CLOUDY    69  64  84 W7        29.95R
MADISON        FAIR      59  59 100 NE7       29.94S
MITCHELL       MOCLDY    69  66  90 W8        29.95R THUNDER
SIOUX FALLS    CLOUDY    65  62  90 CALM      29.92F
WINNER         FAIR      75  55  49 S6        29.92F
YANKTON        CLEAR     64  57  77 NE3       29.90S
$$

MNZ071-072-080-081-089-090-097-098-300900-
SOUTHWEST MINNESOTA

CITY           SKY/WX    TMP DP  RH WIND       PRES   REMARKS
FAIRMONT       CLEAR     66  59  77 NW8       29.88S
JACKSON        CLEAR     63  63 100 NW6       29.90F
LUVERNE        CLOUDY    64  61  88 CALM      29.92S
MARSHALL       PTCLDY    63  57  82 NW6       29.90F
MONTEVIDEO     PTCLDY    63  61  94 N5        29.90F
PIPESTONE      MOCLDY    64  61  88 NE3       29.92F
REDWOOD FALLS  CLEAR     65  63  93 NW6       29.88S
TRACY          CLOUDY    65  64  94 NW5       29.91S
WINDOM         CLEAR     64  63  94 NW8       29.90S
WORTHINGTON    CLOUDY    63  57  82 NW6       29.91F
$$

IAZ001>003-012>014-020>022-031-032-NEZ013-014-SDZ071-300900-
NORTHWEST IOWA

CITY           SKY/WX    TMP DP  RH WIND       PRES   REMARKS
CHEROKEE       CLOUDY    64  63  97 CALM      29.91S FOG
DENISON        CLOUDY    64  63  94 CALM      29.89S
ESTHERVILLE    CLEAR     63  61  93 NW7       29.88F
LE MARS          N/A     63  63 100 CALM      29.92S FOG
ORANGE CITY    MOCLDY    63  61  94 N5        29.92S
SHELDON        CLOUDY    61  61 100 CALM      29.90F
SIOUX CITY     MOCLDY    65  59  81 NW5       29.90F
SPENCER        CLOUDY    61  59  93 NW5       29.90S FOG
STORM LAKE     CLEAR     66  63  88 NW8       29.91F
$$

ABBREVIATIONS USED IN REMARKS
   TC - TEMPERATURE IN CELSIUS
  WCI - WIND CHILL INDEX
   HX - HEAT INDEX
  VSB - VISIBILITY




USA.gov is the U.S. government's official web portal to all federal, state and local government web resources and services.